Location: Hains Lake
(37.8540°N, 99.8578°W)
Time: 07:51:11
(UTC+00:00)

Cosmos 332 Rocket - Pass Details

Date: 11 December 2019
Orbit: 683 x 703 km, 74.0° (Epoch: 21 January)

Event Time Altitude Azimuth Distance (km) Brightness Sun altitude
Rises 12:58:10 0° 208° (SSW) 3,076 7.1 -9.1°
Reaches altitude 10° 13:00:31 10° 213° (SSW) 2,162 6.2 -8.7°
Maximum altitude 13:05:18 55° 291° (WNW) 843 3.9 -7.8°
Drops below altitude 10° 13:10:07 10° 9° (N) 2,173 6.2 -7.0°
Sets 13:12:29 0° 14° (NNE) 3,093 7.0 -6.5°
